DW6860 Weather Reports


Display with metric or nautical units.
time (UTC)temp
F
wind
direction
speed
MPH
gust
MPH
rain 1hr
in
rain 24hr
in
rain mn
in
humidity
%
barometer
mb
20260904163910 68 327 4.0 14.0 0.00 0.08 0.08 78 1012.6
20260904163408 68 314 3.0 10.0 0.00 0.08 0.08 79 1012.7
20260904162907 68 291 3.0 10.0 0.00 0.08 0.08 81 1012.6
20260904162416 68 295 3.0 10.0 0.00 0.08 0.08 81 1012.6
20260904161908 68 224 4.0 10.0 0.00 0.08 0.08 81 1012.6
20260904161405 68 261 3.0 9.0 0.00 0.08 0.08 82 1012.5
20260904160904 68 214 4.0 11.0 0.00 0.08 0.08 83 1012.5
20260904160409 68 271 4.0 11.0 0.00 0.08 0.08 83 1012.7
20260904155910 68 274 3.0 11.0 0.00 0.08 0.08 83 1012.6
20260904155728 68 223 4.0 12.0 0.00 0.08 0.08 84 1012.6
20260904154903 68 304 4.0 12.0 0.00 0.08 0.08 84 1012.7
20260904154400 68 272 3.0 9.0 0.00 0.08 0.08 85 1012.7
20260904153904 68 257 3.0 8.0 0.00 0.08 0.08 85 1012.5
20260904153559 68 174 4.0 10.0 0.00 0.08 0.08 85 1012.5
20260904153512 68 227 4.0 10.0 0.00 0.08 0.08 85 1012.6
20260904152401 68 5 4.0 9.0 0.00 0.08 0.08 86 1012.5
20260904151901 67 200 4.0 11.0 0.00 0.08 0.08 86 1012.4
20260904151401 67 243 4.0 11.0 0.00 0.08 0.08 87 1012.3
20260904150900 67 234 4.0 10.0 0.00 0.08 0.08 88 1012.3
20260904150357 67 240 4.0 10.0 0.00 0.08 0.08 88 1012.3
20260904150233 66 230 4.0 12.0 0.00 0.08 0.08 89 1012.4
20260904145359 66 254 4.0 12.0 0.00 0.08 0.08 89 1012.4
20260904144853 66 265 4.0 11.0 0.00 0.08 0.08 89 1012.5
20260904144355 66 212 4.0 11.0 0.00 0.08 0.08 89 1012.4
20260904143853 66 211 4.0 11.0 0.00 0.08 0.08 90 1012.3
20260904143353 66 219 5.0 12.0 0.00 0.08 0.08 90 1012.3
20260904143226 65 263 4.0 12.0 0.00 0.08 0.08 90 1012.2
20260904142352 65 232 4.0 12.0 0.00 0.08 0.08 91 1012.2
20260904141855 65 248 3.0 12.0 0.00 0.08 0.08 91 1012.2
20260904141721 65 176 3.0 11.0 0.00 0.08 0.08 90 1012.3
20260904140856 65 164 2.0 11.0 0.01 0.08 0.08 91 1012.2
20260904140717 65 233 3.0 7.0 0.01 0.08 0.08 90 1012.2
20260904135849 65 229 3.0 8.0 0.01 0.08 0.08 90 1012.2
20260904135344 65 282 3.0 8.0 0.01 0.08 0.08 90 1011.9
20260904135209 65 223 3.0 8.0 0.01 0.08 0.08 90 1011.8
20260904134346 65 299 3.0 9.0 0.02 0.08 0.08 90 1011.7
20260904133843 65 285 3.0 9.0 0.02 0.08 0.08 90 1011.6
20260904133550 65 103 4.0 10.0 0.04 0.08 0.08 90 1011.7
20260904133452 65 204 3.0 10.0 0.02 0.08 0.08 90 1011.7
20260904132345 65 209 4.0 10.0 0.07 0.08 0.08 90 1011.8
20260904131840 65 255 4.0 12.0 0.07 0.08 0.08 91 1011.7
20260904131342 65 196 5.0 13.0 0.07 0.08 0.08 90 1011.8
20260904130839 65 206 5.0 14.0 0.07 0.07 0.07 90 1011.7
20260904130338 66 238 4.0 14.0 0.07 0.07 0.07 90 1011.7
20260904125844 66 221 4.0 14.0 0.07 0.07 0.07 90 1011.6
20260904125338 66 208 5.0 12.0 0.07 0.07 0.07 90 1011.7
20260904124841 67 306 5.0 14.0 0.07 0.07 0.06 89 1011.5
20260904124341 67 311 6.0 14.0 0.06 0.06 0.06 89 1011.5
20260904123839 68 284 5.0 13.0 0.06 0.06 0.06 88 1011.5
20260904123339 69 284 6.0 13.0 0.06 0.06 0.06 89 1011.4
20260904122840 70 254 6.0 13.0 0.04 0.04 0.03 89 1011.1
20260904122343 70 246 5.0 13.0 0.01 0.01 0.01 89 1010.6
20260904122159 70 204 5.0 13.0 0.01 0.01 0.01 89 1010.5
20260904121339 70 209 5.0 11.0 0.01 0.01 0.01 88 1010.6
20260904120839 70 219 6.0 11.0 0.00 0.00 0.00 88 1010.5
20260904120340 70 205 6.0 11.0 0.00 0.00 0.00 88 1010.5
20260904120229 70 253 6.0 14.0 0.00 0.00 0.00 88 1010.5
20260904115336 70 279 7.0 15.0 0.00 0.00 0.00 87 1010.6
20260904114837 70 232 7.0 16.0 0.00 0.00 0.00 87 1010.6
20260904114339 70 245 7.0 16.0 0.00 0.00 0.00 87 1010.5
20260904113839 70 229 7.0 15.0 0.00 0.00 0.00 87 1010.4
20260904113338 70 175 7.0 15.0 0.00 0.00 0.00 87 1010.3
20260904112840 70 225 6.0 14.0 0.00 0.00 0.00 87 1010.5
20260904112337 70 186 6.0 17.0 0.00 0.00 0.00 88 1010.4
20260904111836 70 232 7.0 18.0 0.00 0.00 0.00 88 1010.4
20260904111715 70 207 7.0 18.0 0.00 0.00 0.00 88 1010.4
20260904110838 70 209 7.0 15.0 0.00 0.00 0.00 88 1010.5
20260904110336 70 227 7.0 15.0 0.00 0.00 0.00 88 1010.6
20260904105837 70 179 7.0 14.0 0.00 0.00 0.00 88 1010.7
20260904105337 70 211 7.0 15.0 0.00 0.00 0.00 88 1010.8
20260904104837 70 209 8.0 15.0 0.00 0.00 0.00 88 1010.8
20260904104336 70 185 8.0 17.0 0.00 0.00 0.00 87 1010.8
20260904104047 70 173 6.0 16.0 0.00 0.00 0.00 86 1010.8
20260904103957 70 238 7.0 17.0 0.00 0.00 0.00 87 1010.9
20260904102841 71 173 6.0 16.0 0.00 0.00 0.00 86 1010.8
20260904102339 71 187 8.0 16.0 0.00 0.00 0.00 85 1010.9
20260904101839 71 187 8.0 20.0 0.00 0.00 0.00 85 1010.8
20260904101719 71 240 8.0 20.0 0.00 0.00 0.00 84 1010.9
20260904100844 71 196 9.0 20.0 0.00 0.00 0.00 83 1010.9
20260904100337 72 199 7.0 17.0 0.00 0.00 0.00 83 1010.8
20260904095838 72 286 7.0 20.0 0.00 0.00 0.00 82 1010.8
20260904095342 72 177 8.0 20.0 0.00 0.00 0.00 81 1010.9
20260904094839 72 215 8.0 19.0 0.00 0.00 0.00 81 1010.9
20260904094338 71 184 9.0 21.0 0.00 0.00 0.00 82 1010.9
20260904093840 71 24 9.0 21.0 0.00 0.00 0.00 82 1010.9
20260904093712 71 239 7.0 20.0 0.00 0.00 0.00 82 1011.0
20260904092834 71 203 7.0 16.0 0.00 0.01 0.00 82 1011.0
20260904092336 71 198 7.0 16.0 0.00 0.01 0.00 82 1010.8
20260904091835 72 191 7.0 18.0 0.00 0.01 0.00 82 1010.7
20260904091337 72 208 8.0 18.0 0.00 0.01 0.00 83 1010.6
20260904090838 71 57 9.0 18.0 0.00 0.01 0.00 83 1010.6
20260904090336 71 244 9.0 21.0 0.00 0.01 0.00 83 1010.6
20260904090157 71 203 8.0 21.0 0.00 0.01 0.00 83 1010.6
20260904085334 71 40 9.0 18.0 0.00 0.01 0.00 83 1010.6
20260904084836 71 209 8.0 18.0 0.00 0.01 0.00 83 1010.6
20260904084332 71 202 8.0 17.0 0.00 0.01 0.00 83 1010.4
20260904083832 71 194 8.0 16.0 0.00 0.01 0.00 83 1010.4
20260904083658 71 287 8.0 20.0 0.00 0.01 0.00 84 1010.6
20260904082832 71 190 8.0 20.0 0.00 0.01 0.00 84 1010.6
20260904082332 71 205 9.0 19.0 0.00 0.01 0.00 84 1010.7
20260904082124 71 212 9.0 20.0 0.00 0.01 0.00 85 1010.5
20260904082006 71 186 9.0 19.0 0.00 0.01 0.00 85 1010.5
20260904080830 71 200 10.0 21.0 0.00 0.01 0.00 84 1010.7
20260904080330 71 205 10.0 21.0 0.00 0.01 0.00 84 1010.6
20260904080214 71 193 9.0 19.0 0.00 0.01 0.00 84 1010.7
20260904075333 71 200 9.0 23.0 0.00 0.01 0.00 84 1010.4
20260904074835 71 206 9.0 23.0 0.00 0.01 0.00 84 1010.9
20260904074658 71 194 9.0 22.0 0.00 0.01 0.00 84 1010.9
20260904073829 71 234 10.0 23.0 0.00 0.01 0.00 84 1010.8
20260904073329 70 212 9.0 23.0 0.00 0.01 0.00 84 1010.9
20260904073142 70 203 8.0 22.0 0.00 0.01 0.00 85 1011.0
20260904072328 70 192 9.0 17.0 0.00 0.01 0.00 85 1011.1
20260904072149 70 218 9.0 20.0 0.00 0.01 0.00 84 1011.2
20260904071325 70 214 9.0 20.0 0.00 0.01 0.00 84 1011.2
20260904070828 70 194 7.0 18.0 0.00 0.01 0.00 84 1011.1
20260904070327 70 250 7.0 18.0 0.00 0.01 0.00 84 1011.1
20260904065829 70 278 9.0 17.0 0.00 0.02 0.00 84 1011.1
20260904065640 70 205 9.0 19.0 0.00 0.02 0.00 84 1011.2
20260904064822 70 248 7.0 19.0 0.00 0.02 0.00 84 1011.1
20260904064322 70 169 6.0 13.0 0.00 0.02 0.00 84 1011.2
20260904063818 69 203 6.0 11.0 0.00 0.02 0.00 85 1011.2
20260904063319 69 227 6.0 15.0 0.00 0.02 0.00 85 1011.2
20260904062815 69 195 6.0 15.0 0.00 0.02 0.00 84 1011.3
20260904062316 69 203 6.0 19.0 0.00 0.05 0.00 84 1011.4
20260904061815 70 194 7.0 19.0 0.00 0.05 0.00 84 1011.5
20260904061313 70 230 9.0 27.0 0.00 0.05 0.00 83 1011.4
20260904060814 70 202 9.0 27.0 0.00 0.05 0.00 83 1011.4
20260904060316 70 225 7.0 16.0 0.00 0.05 0.00 83 1011.4
20260904055814 70 222 7.0 16.0 0.00 0.05 0.00 83 1011.5
20260904055625 70 203 7.0 16.0 0.00 0.05 0.00 83 1011.5
20260904054814 70 219 8.0 17.0 0.00 0.05 0.00 83 1011.5
20260904054315 70 200 8.0 17.0 0.00 0.05 0.00 83 1011.6
20260904053814 70 199 7.0 18.0 0.00 0.05 0.00 83 1011.6
20260904053623 70 205 7.0 18.0 0.00 0.05 0.00 82 1011.7
20260904052810 70 201 6.0 13.0 0.00 0.05 0.00 83 1011.9
20260904052310 70 201 6.0 17.0 0.00 0.05 0.00 83 1011.9
20260904051814 70 225 6.0 17.0 0.00 0.05 0.00 83 1012.0
20260904051309 70 206 6.0 15.0 0.00 0.05 0.00 82 1012.3
20260904051018 70 242 7.0 14.0 0.00 0.05 0.00 83 1012.1
20260904050926 70 215 7.0 15.0 0.00 0.05 0.00 82 1012.2
20260904045809 70 219 6.0 12.0 0.00 0.05 0.00 83 1012.3
20260904045309 70 188 7.0 17.0 0.00 0.05 0.00 83 1012.3
20260904044811 70 207 7.0 17.0 0.00 0.05 0.00 83 1012.3
20260904044310 70 202 6.0 15.0 0.00 0.05 0.00 83 1012.2
20260904044129 70 242 6.0 12.0 0.00 0.05 0.00 83 1012.5
20260904043309 70 207 6.0 12.0 0.00 0.05 0.00 83 1012.6
20260904042811 70 192 6.0 12.0 0.00 0.05 0.00 83 1012.6
20260904042306 70 241 6.0 12.0 0.00 0.05 0.00 83 1012.7
20260904041809 70 202 7.0 13.0 0.00 0.05 0.00 83 1012.6
20260904041305 70 208 6.0 14.0 0.00 0.05 0.00 83 1012.8
20260904040804 70 231 5.0 14.0 0.00 0.05 0.00 83 1012.6
20260904040310 70 213 5.0 15.0 0.00 0.05 0.00 83 1012.6
20260904035808 70 217 6.0 15.0 0.00 0.05 0.00 83 1012.5
20260904035307 70 193 6.0 14.0 0.00 0.05 0.00 83 1012.5
20260904035130 70 219 6.0 12.0 0.00 0.05 0.00 83 1012.6
20260904034301 70 263 5.0 12.0 0.00 0.05 0.00 83 1012.7
20260904033759 70 220 6.0 13.0 0.00 0.05 0.00 83 1012.9
20260904033259 70 172 7.0 13.0 0.00 0.05 0.00 83 1012.7
20260904032759 70 221 7.0 21.0 0.00 0.05 0.00 83 1012.7
20260904032305 70 227 7.0 21.0 0.00 0.05 0.00 83 1012.8
20260904031801 70 198 6.0 12.0 0.00 0.05 0.00 82 1012.8
20260904031307 70 221 6.0 13.0 0.00 0.05 0.00 82 1013.0
20260904030800 70 224 7.0 13.0 0.00 0.05 0.00 82 1012.9
20260904030255 70 192 6.0 13.0 0.00 0.05 0.00 82 1013.0
20260904025754 70 215 6.0 12.0 0.00 0.05 0.00 82 1013.1
20260904025257 70 173 5.0 12.0 0.00 0.05 0.00 82 1013.1
20260904024753 70 188 6.0 13.0 0.00 0.05 0.00 82 1013.2
20260904024253 70 188 6.0 13.0 0.00 0.05 0.00 82 1013.3
20260904023753 70 192 6.0 16.0 0.00 0.05 0.00 82 1013.3
20260904023258 70 199 6.0 15.0 0.00 0.05 0.00 83 1013.3
20260904023253 70 195 7.0 16.0 0.00 0.05 0.00 82 1013.3
20260904022901 70 234 6.0 15.0 0.00 0.05 0.00 82 1013.2
20260904021757 70 192 5.0 14.0 0.00 0.05 0.00 83 1013.3
20260904021250 70 179 5.0 14.0 0.00 0.05 0.00 83 1013.4
20260904020746 70 217 6.0 11.0 0.00 0.05 0.00 83 1013.3
20260904020249 70 181 6.0 19.0 0.00 0.05 0.00 82 1013.5
20260904015749 70 211 7.0 19.0 0.00 0.05 0.00 83 1013.5
20260904015246 70 290 7.0 13.0 0.00 0.05 0.00 83 1013.6
20260904014745 70 263 6.0 13.0 0.00 0.05 0.00 83 1013.7
20260904014245 70 198 5.0 13.0 0.00 0.05 0.00 84 1013.8
20260904013743 70 275 6.0 13.0 0.00 0.05 0.00 84 1013.8
20260904013243 70 200 5.0 11.0 0.00 0.05 0.00 84 1014.0
20260904012745 70 218 5.0 12.0 0.00 0.05 0.00 84 1013.9
20260904012243 70 248 5.0 12.0 0.00 0.05 0.00 84 1014.0
20260904011744 70 180 5.0 11.0 0.00 0.05 0.00 84 1014.2
20260904011243 70 196 5.0 11.0 0.00 0.05 0.00 84 1014.2
20260904011056 70 193 5.0 11.0 0.00 0.05 0.00 84 1014.1
20260904010247 70 211 6.0 12.0 0.00 0.05 0.00 85 1014.3
20260904005745 70 181 5.0 12.0 0.00 0.05 0.00 85 1014.3
20260904005241 70 238 5.0 12.0 0.00 0.05 0.00 85 1014.3
20260904004918 70 221 6.0 12.0 0.00 0.05 0.00 85 1014.4
20260904004841 70 224 6.0 12.0 0.00 0.05 0.00 85 1014.3
20260904003737 70 225 5.0 12.0 0.00 0.05 0.00 85 1014.4
20260904003235 70 211 5.0 11.0 0.00 0.05 0.00 85 1014.5
20260904003046 70 233 5.0 10.0 0.00 0.05 0.00 85 1014.5
20260904002235 70 223 5.0 10.0 0.00 0.05 0.00 85 1014.5
20260904001732 70 186 4.0 10.0 0.00 0.05 0.00 85 1014.6
20260904001233 70 225 4.0 8.0 0.00 0.05 0.00 85 1014.6
20260904000733 70 219 4.0 8.0 0.00 0.05 0.00 85 1014.7
20260904000233 70 194 4.0 9.0 0.00 0.05 0.00 85 1014.7
20260904000057 70 168 4.0 9.0 0.00 0.05 0.00 84 1014.7
20260903235233 70 213 4.0 11.0 0.00 0.05 0.00 85 1014.8
20260903234730 70 205 4.0 11.0 0.00 0.05 0.00 85 1014.7
20260903234233 70 217 4.0 9.0 0.00 0.05 0.00 85 1014.9
20260903234059 70 238 5.0 11.0 0.00 0.05 0.00 85 1014.8
20260903233232 70 242 4.0 11.0 0.00 0.05 0.00 85 1014.8
20260903232733 70 206 4.0 8.0 0.00 0.05 0.00 85 1015.0
20260903232545 70 216 4.0 14.0 0.00 0.05 0.00 85 1015.0
20260903231731 70 240 4.0 14.0 0.00 0.05 0.00 85 1015.1
20260903231232 70 186 4.0 9.0 0.00 0.05 0.00 85 1015.1
20260903230732 70 182 4.0 9.0 0.00 0.05 0.00 85 1015.1
20260903230241 70 226 3.0 8.0 0.00 0.05 0.00 85 1015.1
20260903225732 70 171 3.0 8.0 0.00 0.05 0.00 85 1015.3
20260903225233 70 192 4.0 8.0 0.00 0.05 0.00 85 1015.4
20260903224730 70 194 3.0 8.0 0.00 0.05 0.00 85 1015.6
20260903224231 70 227 3.0 7.0 0.00 0.05 0.00 85 1015.6
20260903223730 70 223 4.0 7.0 0.00 0.05 0.00 85 1015.6
20260903223234 70 222 4.0 8.0 0.00 0.05 0.00 85 1015.6
20260903222731 70 207 4.0 10.0 0.00 0.05 0.00 85 1015.6
20260903222234 69 213 4.0 10.0 0.00 0.05 0.00 86 1015.7
20260903221733 69 261 4.0 10.0 0.00 0.05 0.00 86 1015.7
20260903221231 69 242 3.0 7.0 0.00 0.05 0.00 86 1015.7
20260903220730 70 206 3.0 8.0 0.00 0.05 0.00 86 1015.7
20260903220546 70 219 3.0 8.0 0.00 0.05 0.00 86 1015.8
20260903220055 70 223 3.0 8.0 0.00 0.05 0.05 86 1015.8
20260903215223 70 217 3.0 8.0 0.00 0.05 0.05 86 1015.8
20260903214853 70 233 4.0 7.0 0.00 0.05 0.05 85 1016.0
20260903214822 70 208 3.0 7.0 0.00 0.05 0.05 85 1016.0
20260903213718 70 186 4.0 8.0 0.00 0.05 0.05 85 1016.0
20260903213217 70 194 3.0 8.0 0.00 0.05 0.05 85 1015.9
20260903212718 70 227 3.0 9.0 0.00 0.05 0.05 84 1016.0
20260903212215 70 200 4.0 9.0 0.00 0.05 0.05 84 1016.1
20260903211714 70 205 3.0 9.0 0.00 0.05 0.05 84 1016.2
20260903211214 70 190 3.0 9.0 0.00 0.05 0.05 84 1016.1
20260903210714 70 219 4.0 9.0 0.00 0.05 0.05 84 1016.3
20260903210212 70 238 4.0 9.0 0.00 0.05 0.05 84 1016.5
20260903205710 70 228 4.0 14.0 0.00 0.05 0.05 84 1016.4
20260903205205 70 260 5.0 14.0 0.00 0.05 0.05 84 1016.3
20260903204704 70 202 4.0 9.0 0.00 0.05 0.05 84 1016.5
20260903204223 69 194 4.0 10.0 0.00 0.05 0.05 84 1016.5
20260903203713 69 190 4.0 10.0 0.00 0.05 0.05 84 1016.5
20260903203213 69 183 3.0 6.0 0.00 0.05 0.05 83 1016.5
20260903202709 69 215 4.0 8.0 0.00 0.05 0.05 83 1016.4
20260903202331 69 217 4.0 10.0 0.00 0.05 0.05 83 1016.3
20260903202036 74 270 3.0 10.0 0.00 0.05 0.05 73 1016.7
20260903201910 69 234 3.0 10.0 0.00 0.05 0.05 82 1016.3
20260903201238 69 182 2.0 4.0 0.00 0.05 0.05 82 1016.4
20260903200919 72 204 2.0 4.0 0.00 0.05 0.05 76 1016.5
20260903200821 70 215 2.0 4.0 0.00 0.05 0.05 82 1016.4
20260903200406 70 215 3.0 6.0 0.00 0.05 0.05 81 1016.5
20260903200057 70 169 2.0 5.0 0.00 0.05 0.05 80 1016.3
20260903195707 70 194 3.0 7.0 0.00 0.05 0.05 81 1016.4
20260903195655 72 204 2.0 4.0 0.00 0.05 0.05 76 1016.5
20260903195650 73 217 3.0 7.0 0.00 0.05 0.05 75 1016.5
20260903195643 73 209 3.0 7.0 0.00 0.05 0.05 74 1016.7
20260903195319 74 233 3.0 11.0 0.00 0.05 0.05 72 1016.7
20260903195249 70 219 3.0 7.0 0.00 0.05 0.05 81 1016.3
20260903194928 74 248 4.0 12.0 0.00 0.05 0.05 71 1016.7
20260903194834 70 223 3.0 4.0 0.00 0.05 0.05 80 1016.3
20260903194640 70 198 2.0 5.0 0.00 0.05 0.05 80 1016.4
20260903194450 70 234 2.0 5.0 0.00 0.05 0.05 80 1016.3
20260903193907 70 172 2.0 6.0 0.00 0.05 0.05 79 1016.5
20260903193715 71 190 2.0 6.0 0.00 0.05 0.05 79 1016.4
20260903193524 71 193 2.0 4.0 0.00 0.05 0.05 78 1016.4
20260903193326 71 186 2.0 4.0 0.00 0.05 0.05 78 1016.5
20260903193140 71 210 2.0 4.0 0.00 0.05 0.05 78 1016.6
20260903192952 71 204 1.0 4.0 0.00 0.05 0.05 77 1016.5
20260903192745 71 204 1.0 3.0 0.00 0.05 0.05 77 1016.5
20260903192604 71 204 1.0 3.0 0.00 0.05 0.05 77 1016.6
20260903192409 72 204 1.0 4.0 0.00 0.05 0.05 77 1016.6
20260903192206 72 204 1.0 4.0 0.00 0.05 0.05 76 1016.6
20260903192016 72 204 2.0 3.0 0.00 0.05 0.05 76 1016.4
20260903191026 72 222 2.0 7.0 0.00 0.05 0.05 75 1016.6
20260903190823 72 187 2.0 7.0 0.00 0.05 0.05 75 1016.6
20260903190232 73 189 3.0 7.0 0.00 0.05 0.05 74 1016.7
20260903190032 73 204 3.0 6.0 0.00 0.05 0.05 74 1016.5
20260903185417 73 233 3.0 7.0 0.00 0.05 0.05 74 1016.8
20260903185218 73 184 3.0 7.0 0.00 0.05 0.05 73 1016.9
20260903184504 74 238 3.0 9.0 0.00 0.05 0.05 73 1016.8
20260903183504 74 223 3.0 7.0 0.00 0.05 0.05 73 1016.8
20260903180624 74 233 3.0 11.0 0.00 0.05 0.05 72 1016.7
20260903173615 74 230 5.0 13.0 0.00 0.05 0.05 71 1016.6
20260903172332 74 348 4.0 9.0 0.00 0.05 0.05 71 1016.6
20260903171246 74 248 4.0 12.0 0.00 0.05 0.05 71 1016.7
20260903170139 74 314 5.0 12.0 0.00 0.05 0.05 71 1016.7
20260903165636 74 168 5.0 12.0 0.00 0.05 0.05 70 1016.5
20260903165136 75 217 3.0 9.0 0.00 0.05 0.05 71 1016.5
20260903165001 75 240 4.0 8.0 0.00 0.05 0.05 71 1016.5
20260903164138 75 355 4.0 10.0 0.00 0.05 0.05 70 1016.9